Location: Unspecified
(52.0830°N, 0.0000°E)
Time: 16:51:46
(UTC+00:00)

Altair 2 - Visible Passes

Search period start: 04 April 2026 00:00
Search period end: 14 April 2026 00:00
Orbit: 653 x 765 km, 59.7° (Epoch: 29 March)

Date Brightness Start Highest point End Pass type
(mag) Time Alt. Az. Time Alt. Az. Time Alt. Az.
4 Apr 7.8 01:05:38 10° WNW 01:10:20 35° N 01:14:53 10° ENE visible
4 Apr 6.7 02:48:30 10° NW 02:53:30 63° NNE 02:58:19 10° ESE visible
4 Apr 6.8 04:31:14 10° WNW 04:35:45 36° SW 04:40:08 10° SSE visible
4 Apr 6.6 20:43:02 10° SSW 20:48:04 48° SE 20:52:59 10° ENE visible
4 Apr 7.0 22:25:25 10° WSW 22:30:33 56° NNW 22:35:33 10° NE visible
5 Apr 7.8 00:09:06 10° WNW 00:13:48 35° N 00:18:22 10° ENE visible
5 Apr 7.3 01:52:16 10° NW 01:57:09 46° NNE 02:01:52 10° E visible
5 Apr 6.2 03:34:53 10° WNW 03:39:48 63° SW 03:44:33 10° SE visible
5 Apr 7.3 19:47:43 10° S 19:52:10 28° SE 19:56:32 10° ENE visible
5 Apr 6.4 21:29:00 10° WSW 21:34:16 80° NW 21:39:23 10° NE visible
5 Apr 7.7 23:12:27 10° W 23:17:17 38° NNW 23:21:59 10° ENE visible
6 Apr 7.7 00:55:57 10° WNW 01:00:42 38° NNE 01:05:18 10° E visible
6 Apr 6.3 02:38:39 10° NW 02:43:41 82° NE 02:48:33 10° ESE visible
6 Apr 7.2 04:21:39 10° WNW 04:25:40 25° SW 04:29:34 10° S visible
6 Apr 6.3 20:32:54 10° SW 20:38:07 67° SE 20:43:12 10° ENE visible
6 Apr 7.4 22:15:48 10° W 22:20:50 46° NNW 22:25:43 10° NE visible
6 Apr 7.9 23:59:29 10° WNW 00:04:11 35° N 00:08:44 10° ENE visible
7 Apr 6.9 01:42:26 10° NW 01:47:26 56° NNE 01:52:14 10° ESE visible
7 Apr 6.5 03:25:07 10° WNW 03:29:49 44° SW 03:34:23 10° SSE visible
7 Apr 6.9 19:37:13 10° SSW 19:42:06 40° SE 19:46:54 10° ENE visible
7 Apr 6.8 21:19:16 10° WSW 21:24:27 63° NNW 21:29:31 10° NE visible
7 Apr 7.8 23:02:53 10° WNW 23:07:38 35° N 23:12:15 10° ENE visible
8 Apr 7.4 00:46:11 10° NW 00:51:02 43° NNE 00:55:43 10° E visible
8 Apr 6.1 02:28:48 10° NW 02:33:49 75° SW 02:38:38 10° SE visible
8 Apr 7.6 04:12:21 10° W 04:15:29 17° WSW 04:18:34 10° SSW visible
8 Apr 6.4 20:22:56 10° SW 20:28:13 89° SE 20:33:21 10° NE visible
8 Apr 7.6 22:06:14 10° W 22:11:08 40° NNW 22:15:54 10° NE visible
8 Apr 7.8 23:49:48 10° WNW 23:54:33 36° N 23:59:09 10° ENE visible
9 Apr 6.4 01:32:35 10° NW 01:37:39 72° NNE 01:42:30 10° ESE visible
9 Apr 7.3 03:15:26 10° WNW 03:21:14 26° SSW 03:23:57 10° S visible
9 Apr 6.5 19:26:58 10° SSW 19:32:06 56° SE 19:37:08 10° ENE visible
9 Apr 7.2 21:09:36 10° W 21:14:42 51° NNW 21:19:40 10° NE visible
9 Apr 7.9 22:53:18 10° WNW 22:58:01 35° N 23:02:36 10° ENE visible
10 Apr 7.1 00:36:22 10° NW 00:41:20 51° NNE 00:42:04 46° NE visible
10 Apr 7.8 02:19:00 10° WNW 02:20:57 23° WNW 02:20:57 23° WNW visible
10 Apr 6.7 20:13:07 10° WSW 20:18:22 71° NNW 20:23:30 10° NE visible
10 Apr 7.8 21:56:40 10° WNW 22:01:28 37° N 22:06:09 10° ENE visible
10 Apr 7.5 23:40:04 10° NW 23:44:54 40° NNE 23:46:52 28° ENE visible
11 Apr 7.3 01:22:44 10° NW 01:25:48 37° NW 01:25:48 37° NW visible
11 Apr 7.6 21:00:01 10° W 21:04:59 43° NNW 21:09:50 10° NE visible
11 Apr 7.8 22:43:39 10° WNW 22:48:23 35° N 22:51:59 15° ENE visible
12 Apr 6.8 00:26:31 10° NW 00:30:55 57° N 00:30:55 57° N visible
12 Apr 8.5 02:09:16 10° WNW 02:09:52 13° WNW 02:09:52 13° WNW visible
12 Apr 7.1 20:03:24 10° WSW 20:08:35 57° NNW 20:13:37 10° NE visible
12 Apr 7.9 21:47:05 10° WNW 21:51:50 35° N 21:56:27 10° ENE visible
12 Apr 7.2 23:30:16 10° NW 23:35:12 46° NNE 23:36:11 41° NE visible
13 Apr 7.8 01:12:53 10° WNW 01:15:09 26° WNW 01:15:09 26° WNW visible
13 Apr 7.8 20:50:26 10° W 20:55:18 38° NNW 21:00:03 10° ENE visible
13 Apr 7.6 22:33:56 10° WNW 22:38:44 38° NNE 22:41:31 21° ENE visible
